Regional Weather Roundup
Issued by NWS

Home | Current Version | Previous Version | Graphics & Text | Print | Product List | Glossary On
Versions: 1 2 3 4 5 6 7 8 9 10 11 12 13 14 15 16 17 18 19 20 21 22 23 24 25 26 27 28 29 30 31 32 33 34 35 36 37 38 39 40 41 42 43 44 45 46 47 48 49 50
000
ASUS43 KMKX 251607
RWRWI

WISCONSIN REGIONAL WEATHER ROUNDUP
NATIONAL WEATHER SERVICE MILWAUKEE/SULLIVAN WI
1100 AM CDT MON MAY 25 2015

NOTE: "FAIR" INDICATES FEW OR NO CLOUDS BELOW 12,000 FEET WITH NO
SIGNIFICANT WEATHER AND/OR OBSTRUCTIONS TO VISIBILITY.

WIZ001-002-006>008-014>016-023>028-251700-
NORTHWEST WISCONSIN

CITY           SKY/WX    TMP DP  RH WIND       PRES   REMARKS
SUPERIOR ARPT  LGT RAIN  50  49  98 E13G20    29.69F
ASHLAND        LGT RAIN  50  50 100 N9        29.68F VSB 1/2
HAYWARD        LGT RAIN  60  57  89 S7        29.68S
SIREN          CLOUDY    59  58  96 S3        29.68S
CUMBERLAND     CLOUDY    57  55  94 S7        29.69R FOG
RICE LAKE      CLOUDY    59  57  94 CALM      29.70R FOG
CHETEK         CLOUDY    59  59  99 SW5       29.70R
LADYSMITH      CLOUDY    61  60  97 SW7       29.70S FOG
EAU CLAIRE     LGT RAIN  64  60  87 SW12      29.69S
MENOMONIE      CLOUDY    65  64  94 S8        29.69F FOG
NEW RICHMOND   CLOUDY    64  64  98 SW10      29.68F
OSCEOLA        CLOUDY    62  62 100 S6        29.70F
$$

WIZ003>005-009-010-017-018-251700-
NORTH CENTRAL WISCONSIN

CITY           SKY/WX    TMP DP  RH WIND       PRES   REMARKS
MANITOWISH WTR RAIN      59  59 100 SE6       29.68F
ARBOR VITAE    DRIZZLE   62  60  95 SE8       29.69F
WOODRUFF       DRIZZLE   62  60  95 SE8       29.69F
RHINELANDER    CLOUDY    61  59  93 S7        29.71S
EAGLE RIVER    HVY RAIN  58  58 100 SE5       29.70F
LAND O LAKES   LGT RAIN  58  58  98 SE6       29.72S
PHILLIPS       DRIZZLE   61  61 100 S5        29.68R
TOMAHAWK       CLOUDY    61  60  97 CALM      29.70S
MEDFORD        DRIZZLE   62  61  98 SW10G17   29.71R
MERRILL        RAIN      62  62 100 S5        29.71S
$$

WIZ029-030-035-036-043>047-251700-
CENTRAL WISCONSIN

CITY           SKY/WX    TMP DP  RH WIND       PRES   REMARKS
WAUSAU         CLOUDY    63  62  97 S7        29.70R
MOSINEE        NOT AVBL
MARSHFIELD     CLOUDY    66  62  87 W13       29.72S
STEVENS POINT  LGT RAIN  63  63  98 SW8       29.73R
WAUPACA        LGT RAIN  67  67  98 SW6       29.72R
WAUTOMA        NOT AVBL
WISC RAPIDS    LGT RAIN  67  62  84 W13G21    29.75R
CAMP DOUGLAS   NOT AVBL
$$

WIZ011>013-019>022-031-037>040-048>050-251700-
NORTHEAST WISCONSIN

CITY           SKY/WX    TMP DP  RH WIND       PRES   REMARKS
ANTIGO         RAIN      58  57  99 SE7       29.72S
SHAWANO        LGT RAIN  65  64  96 CALM      29.69F
OCONTO         CLOUDY    62  62 100 S7        29.71F
STURGEON BAY   CLOUDY    61  55  82 S15G22    29.75F
GREEN BAY      LGT RAIN  68  65  90 S16       29.70F FOG
MANITOWOC      NOT AVBL
APPLETON       DRIZZLE   66  66 100 SW14G30   29.72R
CLINTONVILLE   HVY RAIN  64  64 100 SW12      29.69S
OSHKOSH        CLOUDY    69  63  81 SW12G22   29.74R
$$

WIZ032>034-041-042-053>061-251700-
SOUTHWEST WISCONSIN

CITY           SKY/WX    TMP DP  RH WIND       PRES   REMARKS
LA CROSSE      PTSUNNY   71  63  75 SW14G22   29.73S
SPARTA         NOT AVBL
VIROQUA        CLOUDY    65  65 100 SW16      29.78R
BOSCOBEL       CLOUDY    68  63  84 SW10      29.79R
PRAIRIE DU CHI LGT RAIN  66  62  87 SW6       29.78F
PLATTEVILLE    CLOUDY    66  65  95 SW13      29.82S
$$

WIZ056-057-062-063-064-067-068-251700-
SOUTH CENTRAL WISCONSIN

CITY           SKY/WX    TMP DP  RH WIND       PRES   REMARKS
REEDSBURG      CLOUDY    66  63  90 SW13      29.77R
BARABOO/DELLS  CLOUDY    66  62  85 SW13      29.77R
LONE ROCK      LGT RAIN  66  63  88 SW7       29.79S
MINERAL POINT  LGT RAIN  64  63  94 SW15      29.81R
MADISON        CLOUDY    69  61  75 VRB7      29.79R
MIDDLETON      CLOUDY    68  64  87 SW12      29.80R
WATERTOWN      CLOUDY    71  67  87 SW16G24   29.78R
MONROE         CLOUDY    66  61  82 SW18G30   29.82R
JANESVILLE     CLOUDY    72  63  73 SW12G20   29.82R
$$

WIZ051-052-058>065-066-070>072-251700-
SOUTHEAST WISCONSIN

CITY           SKY/WX    TMP DP  RH WIND       PRES   REMARKS
MILWAUKEE      PTSUNNY   72  64  76 SW15G25   29.80S
WAUKESHA       MOSUNNY   70  63  78 S14       29.81S
MILWAUKEE/TIMM PTSUNNY   72  63  73 SW15      29.79F
RACINE         PTSUNNY   71  64  78 SW17G25   29.83S
BURLINGTON     PTSUNNY   70  65  85 SW18      29.82S
KENOSHA        PTSUNNY   70  66  87 MISG      29.83S
FOND DU LAC    CLOUDY    70  62  76 SW13G24   29.76R
SHEBOYGAN      PTSUNNY   73  64  73 SW20G35   29.76S
WEST BEND      CLOUDY    72  63  73 SW16G26   29.78R
JUNEAU         CLOUDY    69  62  78 SW18G29   29.79R
$$

LSZ147-162-251700-
LAKE SUPERIOR

STATION/POSITION TIME  TEMP    WIND        PRES    WAVE
                       AIR SEA DIR/SP/G            HT/PER
                 (UTC) (F)     (DEG/KT/KT) (MB)    (FT/S)
W MID LAKE BUOY  1450   41 36   40/ 17/ 19 1072.0F   2/ 3
DEVILS ISLAND    1500   45      50/ 26/ 29 1062.0F
PORT WING        1500   48      40/ 13/ 15 1061.0F
SAXON HARBOR     1500   49      60/  4/  6 1051.0
$$

LMZ867-665-643>646-251700-
LAKE MICHIGAN

STATION/POSITION TIME  TEMP    WIND        PRES    WAVE
                       AIR SEA DIR/SP/G            HT/PER
                 (UTC) (F)     (DEG/KT/KT) (MB)    (FT/S)
CHAMBERS ISLAND  1500   58     130/  4/  8 1071.0F
N MID LAKE BUOY  1450   46 36  180/ 10/ 12 1090.0    1
NORTHPORT PIER   1500   48     140/ 12/ 13 1078.0F
SISTER BAY       1503   57     150/ 10/ 14   N/A
KEWAUNEE LAKESHO 1500   48     180/ 11/ 12 1070.0F
SHEBOYGAN LAKESH 1500   50     180/ 22/ 25 1082.0F
PORT WASHINGTON  1400   51     180/  2/  4   N/A
ATWATER BUOY     1500   63 46  220/ 17/ 19   N/A
MILWAUKEE LAKESH 1500          220/ 13/ 16   N/A
S MID LAKE BUOY  1450   49 38  180/ 14/ 16   N/A     2/ 4
KENOSHA   LAKESH 1500   71     210/ 24/ 34   N/A
$$

TC  - TEMPERATURE IN CELSIUS
VSB - VISIBILITY IN STATUTE MILES
WCI - WIND CHILL INDEX
HX  - HEAT INDEX




USA.gov is the U.S. government's official web portal to all federal, state and local government web resources and services.